Regional Weather Roundup
Issued by NWS

Home | Current Version | Previous Version | Text Only | Print | Product List | Glossary On
Versions: 1 2 3 4 5 6 7 8 9 10 11 12 13 14 15 16 17 18 19 20 21 22 23 24 25 26 27 28 29 30 31 32 33 34 35 36 37 38 39 40 41 42 43 44 45 46 47 48 49 50
000
ASUS43 KDMX 300007
RWRIA

WEATHER ROUNDUP FOR IOWA
NATIONAL WEATHER SERVICE DES MOINES IA
700 PM CDT FRI MAY 29 2015

NOTE: "FAIR" INDICATES FEW OR NO CLOUDS BELOW 12,000 FEET WITH NO
SIGNIFICANT WEATHER AND/OR OBSTRUCTIONS TO VISIBILITY.

* - THESE STATIONS ARE NOT NWS STATIONS...THUS NOT UNDER NWS
QUALITY CONTROL.  THEY ALSO DO NOT REPORT WEATHER SUCH
AS PRECIPITATION OR FOG.

IAZ001>003-012>014-020>022-031>034-043>046-300100-
   NORTHWEST IOWA

CITY           SKY/WX    TMP DP  RH WIND       PRES   REMARKS
CARROLL *      MOSUNNY   73  63  68 NW13G20   29.89R
CHEROKEE *     CLOUDY    58  55  89 N18G28    29.96R
DENISON *      CLOUDY    66  66 100 N10G20    29.89R
LE MARS *      CLOUDY    57  54  88 N22       30.00R
ORANGE CITY *  CLOUDY    54  50  87 N17G26    30.00R
SHELDON *      CLOUDY    54  52  94 N21G31    30.00R
SIOUX CITY     LGT RAIN  60  54  80 N24G32    29.97R
6HR MIN TEMP:  60; 6HR MAX TEMP:  79; 6HR PCP:  0.13;

SPENCER        CLOUDY    56  52  86 N22G35    29.97R
6HR MIN TEMP:  56; 6HR MAX TEMP:  75; 6HR PCP: TRACE;

STORM LAKE *   CLOUDY    61  57  88 N22G29    29.94R
$$

IAZ055>058-069>071-079>083-090>094-300100-
   SOUTHWEST IOWA

CITY           SKY/WX    TMP DP  RH WIND       PRES   REMARKS
ATLANTIC *     SUNNY     73  64  73 SW12      29.89R
AUDUBON *      SUNNY     73  63  68 SW8       29.90S
CLARINDA *     SUNNY     73  66  78 S10       29.92F
COUNCIL BLFS * MOSUNNY   75  63  64 SW8       29.88F
CRESTON *      MOSUNNY   72  64  78 SW10G17   29.92S
HARLAN  *      SUNNY     75  66  73 S10       29.91S
LAMONI         CLOUDY    73  63  70 SW12      29.93S
6HR MIN TEMP:  69; 6HR MAX TEMP:  74; 6HR PCP:  0.04;

RED OAK *      SUNNY     75  63  64 SW12      29.89F
SHENANDOAH *   SUNNY     77  63  61 SW9       29.90F
$$

IAZ047>049-059>061-072>074-084-300100-
   CENTRAL IOWA

CITY           SKY/WX    TMP DP  RH WIND       PRES   REMARKS
AMES           CLOUDY    75  63  66 SW14      29.87S
6HR MIN TEMP:  73; 6HR MAX TEMP:  76; 6HR PCP: TRACE;

ANKENY *       SUNNY     73  66  78 SW10G18   29.88S
CHARITON *     MOSUNNY   70  64  83 SW9       29.92S
DES MOINES     CLOUDY    74  64  71 W14       29.88S
6HR MIN TEMP:  72; 6HR MAX TEMP:  76; 6HR PCP: TRACE;

GRINNELL*      PTSUNNY   70  63  78 SW8       29.91S
KNOXVILLE *    SUNNY     70  64  83 S8        29.90S
MARSHALLTOWN   PTSUNNY   73  64  73 S10       29.88S
6HR MIN TEMP:  73; 6HR MAX TEMP:  78;

PELLA *        DRIZZLE   70  68  95 S6        29.92S
PERRY *          N/A     74  63  67 SW13      29.88S
$$

IAZ004>006-015-016-023>025-035-036-300100-
   NORTH CENTRAL IOWA

CITY           SKY/WX    TMP DP  RH WIND       PRES   REMARKS
ALGONA *       CLOUDY    64  63  94 N13G23    29.91R
CLARION *      HVY RAIN  66  64  94 NW14G21   29.89R VSB 3/4
ESTHERVILLE    CLOUDY    56  55  97 N23       29.95R FOG
6HR MIN TEMP:  56; 6HR MAX TEMP:  71; 6HR PCP:  0.22;

FORT DODGE *   CLOUDY    64  61  88 NW8       29.91R
MASON CITY     CLOUDY    69  65  86 W6        29.89R
6HR MIN TEMP:  67; 6HR MAX TEMP:  74; 6HR PCP:  0.09;

FOREST CITY *  LGT RAIN  64  64 100 NW5       29.88S
IOWA FALLS *     N/A     73  64  73 SW10      29.89R
$$

IAZ007>011-017>019-026>030-037>042-050>054-066-300100-
   NORTHEAST IOWA

CITY           SKY/WX    TMP DP  RH WIND       PRES   REMARKS
CEDAR RAPIDS   CLOUDY    73  63  70 SW13      29.90R
6HR MIN TEMP:  71; 6HR MAX TEMP:  79; 6HR PCP:  0.01;

CHARLES CITY * MOSUNNY   70  70 100 S7        29.88S
CLINTON *      CLOUDY    73  64  73 W9        29.92S
DECORAH *      SUNNY     68  66  94 CALM      29.88R
DUBUQUE        CLOUDY    75  65  70 W16       29.89R
6HR MIN TEMP:  70; 6HR MAX TEMP:  77; 6HR PCP:  0.01;

MONTICELLO *   SUNNY     73  66  78 SW9       29.90R
OELWEIN *      SUNNY     72  66  83 SW7       29.89S
WATERLOO       CLOUDY    74  65  73 SW10      29.86S
6HR MIN TEMP:  66; 6HR MAX TEMP:  81; 6HR PCP:  0.20;

$$

IAZ064-065-067-068-078-300100-
   EAST CENTRAL IOWA

CITY           SKY/WX    TMP DP  RH WIND       PRES   REMARKS
DAVENPORT      PTSUNNY   77  61  57 W13       29.91S
6HR MIN TEMP:  76; 6HR MAX TEMP:  82;

IOWA CITY      CLOUDY    73  64  73 SW7       29.92R
6HR MIN TEMP:  69; 6HR MAX TEMP:  80; 6HR PCP:  0.05;

MT. PLEASANT * CLOUDY    73  63  69 SW7       29.92R
MUSCATINE *    PTSUNNY   77  66  69 W13       29.91R
QUAD CITIES    CLOUDY    75  63  66 W6        29.90R
6HR MIN TEMP:  75; 6HR MAX TEMP:  82;

$$

IAZ062-063-075>077-085>089-095>099-300100-
   SOUTHEAST IOWA

CITY           SKY/WX    TMP DP  RH WIND       PRES   REMARKS
BURLINGTON     CLOUDY    75  66  73 SW7       29.92R
6HR MIN TEMP:  75; 6HR MAX TEMP:  81;

FAIRFIELD *    PTSUNNY   73  64  73 VRB7      29.94R
FORT MADISON * SUNNY     73  64  73 SW6       29.94R
KEOKUK *       SUNNY     75  66  73 SW7       29.93R
OSKALOOSA *    LGT RAIN  70  63  79 SW8       29.93R
CENTERVILLE *  PTSUNNY   68  68 100 SW6       29.96R
OTTUMWA        CLOUDY    70  64  81 SW14      29.93R
6HR MIN TEMP:  69; 6HR MAX TEMP:  78; 6HR PCP:  0.05;

WASHINGTON *   SUNNY     73  64  73 NW8       29.92F
$$

ABBREVIATIONS USED IN REMARKS
   TC - TEMPERATURES IN CELSIUS
  WCI - WIND CHILL INDEX
   HX - HEAT INDEX
  VSB - VISIBILITY
$$



USA.gov is the U.S. government's official web portal to all federal, state and local government web resources and services.